SCP
0 0 0 0 0 0 0 0 0 -0 -0 0 0 0 0 0 0 0 0 0 0 0 0 0 0 0 0 0 0 0 0 0 0 0 0 0 0 0 0 0 0 0 0 0 0 0 0 0 0 0 0 0 0 0
0 0 0 0 0 0 0 0 0 0 0 0 0 0 0 0 0 0 0 0 0 0 0 0 0 0 0 0 0 0 0 0 0 0 0 0 0 0 0 0 0 0 0 0 0 0 0 0 0 0 0 -0 0 0
0 0 0 0 0 0 0 0 0 0 0 0 0 0 0 0 0 0 0 0 0 0 0 0 0 0 0 0 0 0 0 0 0 0 0 0 0 0 0 0 0 0 0 0 0 0 0 0 0 0 0 0 0 0
0 0 0 0 -0 0 0 0 0 0 0 0 0 0 0 0 -0 -0 0 0 0 0 0 0 0 0 0 0 0 0 0 0 0 0 0 0 0 0 0 0 0 0 0 0 0 0 0 0 0 0 0 0 0 0
-0 0 0 0 -0 0 0 0 0 0 0 0 0 0 -0 0 0 -0 0 0 0 0 0 0 0 0 0 0 0 0 0 0 0 0 0 0 0 0 0 0 0 0 0 0 0 0 0 0 0 0 0 0 0 0
-0 0 0 0 -0 0 0 0 0 0 0 0 0 0 0 -0 0 -0 0 0 0 0 0 0 0 0 0 0 0 0 0 0 0 0 0 0 0 0 0 0 0 0 0 0 0 0 0 0 -0 -0 0 0 0 0
-0 0 0 0 0 0 0 0 0 -0 0 0 0 0 0 0 0 -0 0 0 0 0 0 0 0 0 0 0 0 0 0 0 0 0 0 0 0 0 0 0 0 0 0 0 0 0 0 0 0 0 0 0 0 0
0 0 0 0 0 0 0 0 0 -0 0 0 0 0 0 0 0 0 0 0 0 0 0 0 0 0 0 0 0 0 0 0 0 0 0 0 0 0 0 0 0 0 0 0 0 0 0 0 0 0 0 0 0 0
0 0 0 0 0 0 0 0 -0 0 0 0 0 0 0 0 0 0 0 -0 0 0 0 0 0 0 0 0 0 0 0 0 0 0 0 0 0 0 -0 0 0 0 0 0 0 0 0 0 0 0 0 0 0 0
0 0 0 0 0 0 0 0 -0 0 0 0 0 0 0 0 0 0 0 -0 0 0 0 0 0 0 0 0 0 0 0 0 0 0 0 0 0 -0 0 0 0 0 0 0 0 0 0 0 0 0 0 0 0 0
0 0 0 0 0 0 0 -0 0 0 0 0 0 0 0 0 0 0 0 0 0 0 0 0 0 0 0 0 0 0 0 0 0 0 0 0 -0 -0 0 0 0 0 0 0 0 0 0 0 0 0 0 0 0 0
0 0 0 0 0 0 0 -0 -0 0 0 0 0 0 0 0 0 0 0 0 0 0 0 0 0 0 0 0 0 0 0 0 0 0 0 0 -0 -0 -0 0 0 0 0 0 0 0 0 0 0 0 0 0 0 0
0 0 0 0 0 0 0 0 0 0 0 0 0 0 0 0 0 0 0 0 0 0 0 0 0 0 0 0 0 0 0 0 0 0 0 0 -0 -0 -0 0 0 0 0 0 0 0 0 0 0 0 0 0 0 0
0 0 0 0 0 0 -0 0 0 0 0 0 0 0 0 0 0 0 0 0 0 0 0 0 0 0 0 0 0 0 0 0 0 0 0 0 -0 -0 0 0 0 0 0 0 0 0 0 0 0 0 0 0 0 0
0 0 0 0 0 0 0 0 0 0 0 0 0 0 0 0 0 -0 0 0 0 0 0 0 0 0 0 0 0 0 0 0 0 0 0 -0 -0 -0 0 0 0 0 0 0 0 0 0 0 0 0 0 0 0 0
0 0 0 -0 0 -0 0 0 0 0 0 0 0 0 0 0 -0 0 0 0 0 0 0 0 0 0 0 0 0 0 0 0 0 0 0 0 0 0 0 0 0 0 0 0 0 0 0 0 0 0 0 0 0 0
0 0 0 0 0 0 0 0 0 0 0 0 0 0 -0 0 -0 -0 0 0 0 0 0 0 0 0 0 0 0 0 0 0 0 0 0 0 0 0 -0 0 0 0 0 0 0 0 0 0 0 0 0 0 0 0
0 0 0 0 0 0 0 0 0 0 0 0 0 -0 0 -0 -0 -0 0 0 0 0 0 0 0 0 0 0 0 0 0 0 0 0 0 0 0 0 0 0 0 0 0 0 0 0 0 0 0 0 0 0 0 0
0 0 0 0 0 0 0 0 0 0 0 0 -0 0 -0 -0 -0 -0 -0 -0 0 0 0 0 0 0 0 0 0 0 0 0 0 0 0 0 0 0 0 0 0 0 0 0 0 0 0 0 0 0 0 0 0 0
-0 0 0 -0 0 0 0 0 0 0 0 0 -0 -0 -0 -0 -0 -0 -0 -0 -0 0 0 0 0 0 0 0 0 0 0 0 0 0 0 0 0 0 0 0 0 0 0 0 0 0 0 0 0 0 0 0 0 0
0 0 0 0 0 0 0 0 0 0 0 0 -0 -0 -0 -0 -0 -0 -0 -0 -0 -0 0 0 0 0 0 0 0 0 0 0 0 0 0 0 0 0 0 0 0 0 0 0 0 0 0 0 0 0 0 0 0 0
-0 -0 0 0 0 0 0 0 0 0 0 0 -0 -0 -0 -0 -0 -0 -0 -0 -0 0 0 0 0 0 0 0 0 0 0 0 0 0 0 0 0 0 0 0 0 0 0 0 0 0 0 0 0 0 0 0 0 0
0 0 0 0 0 0 0 0 0 0 0 0 0 -0 -0 -0 -0 -0 -0 -0 -0 0 0 0 0 0 0 0 0 0 0 0 0 0 0 0 0 0 0 0 0 0 0 0 0 0 0 0 0 0 0 0 0 0
0 0 0 0 0 0 0 0 0 0 0 0 0 -0 -0 -0 -0 -0 -0 -0 0 0 0 0 0 0 0 0 0 0 0 0 0 0 0 0 0 0 0 0 0 0 0 0 0 0 0 0 0 0 0 0 0 0
-0 0 0 0 0 0 0 0 0 0 0 0 0 0 0 -0 -0 -0 -0 0 0 0 0 0 0 0 0 0 0 0 0 0 -0 0 0 0 0 0 0 0 0 0 0 0 0 0 0 0 0 0 0 0 0 0
-0 -0 -0 0 0 0 0 0 0 0 0 -0 -0 -0 0 -0 -0 0 0 0 0 0 0 0 0 0 0 0 0 0 0 0 0 0 0 0 0 0 0 0 0 0 0 0 0 0 0 0 0 0 0 0 0 0
-0 -0 -0 0 0 0 0 0 0 0 0 0 0 0 -0 -0 -0 0 0 0 0 0 0 0 0 0 0 0 0 0 0 0 0 0 0 0 0 0 0 0 0 0 0 0 0 0 0 0 0 0 0 0 0 0
0 0 -0 0 0 0 0 0 0 0 -0 -0 0 -0 -0 -0 -0 0 -0 0 0 0 0 0 0 0 0 0 0 0 0 0 0 0 0 0 0 0 0 0 0 0 0 0 0 0 0 0 0 0 0 0 0 0
0 0 0 0 0 0 0 0 0 0 0 0 0 -0 -0 -0 -0 -0 0 0 0 0 0 0 0 0 0 0 0 0 0 0 0 0 0 0 0 0 0 0 0 0 0 0 0 0 0 0 0 0 0 0 0 0
0 0 0 0 0 0 0 0 0 0 0 0 -0 -0 -0 -0 -0 -0 0 0 0 0 0 0 0 0 0 0 0 0 0 0 0 0 0 0 0 0 0 0 0 0 0 0 0 0 0 0 0 0 0 0 0 0
0 0 0 0 0 0 0 0 0 0 -0 -0 -0 -0 -0 -0 -0 0 -0 -0 0 0 0 0 0 0 0 0 0 0 0 0 0 0 0 0 0 0 0 0 0 0 0 0 0 0 0 0 0 0 0 0 0 0
0 0 0 0 0 0 0 0 0 0 -0 -0 -0 -0 -0 -0 0 0 0 0 0 0 0 0 0 0 0 0 0 0 0 0 0 0 0 0 0 0 0 0 0 0 0 0 0 0 0 0 0 0 0 0 0 0
0 0 0 0 0 0 0 0 0 -0 -0 -0 -0 -0 -0 -0 0 0 0 0 0 0 0 0 0 0 0 0 0 0 0 0 0 0 0 0 0 0 0 0 0 0 0 0 0 0 0 0 0 0 0 0 0 0
Wind_Speed_500mb
48 53 56 58 55 51 45 45 39 41 41 35 23 38 52 55 44 33 44 88 60 14 30 59 54 52 39 39 13 35 18 6 6 9 9 9 7 15 7 10 14 17 18 8 6 3 22 28 19 17 6 2 16 55
48 50 52 56 53 50 47 48 45 46 45 45 31 35 40 22 42 38 28 77 70 24 19 61 70 79 79 87 57 67 19 33 28 8 3 6 4 1 10 8 8 10 15 12 21 17 11 60 14 43 4 4 35 57
50 50 57 50 56 56 46 40 44 45 47 40 36 39 42 29 30 40 21 65 84 48 14 56 60 69 65 51 62 31 19 37 28 22 18 6 9 9 10 12 7 9 16 6 7 16 31 40 49 29 22 3 27 53
59 53 51 51 54 54 51 45 44 46 44 44 37 41 39 15 33 41 37 40 68 35 10 18 49 57 64 56 70 61 42 60 41 34 8 6 6 20 9 6 15 14 27 16 9 16 10 38 56 61 29 27 25 45
58 56 52 49 49 45 39 43 36 38 43 48 36 32 36 29 20 38 54 40 41 51 11 20 38 54 68 64 63 61 45 56 43 17 4 7 9 8 1 4 8 24 15 17 16 26 30 16 44 62 59 44 37 52
57 54 51 47 50 43 38 38 44 43 40 44 41 33 32 31 24 11 14 49 55 54 13 7 12 45 58 61 65 54 53 48 27 16 10 10 10 16 8 8 19 65 67 65 24 35 57 42 20 26 57 61 48 57
58 56 49 47 45 38 34 35 40 49 42 46 43 38 32 36 33 24 14 9 33 70 17 7 6 19 59 60 42 42 51 28 17 14 10 11 14 18 4 12 12 58 80 82 67 46 36 55 37 38 39 61 54 63
59 58 51 52 49 42 39 36 42 45 35 37 40 37 34 31 35 32 38 48 12 26 19 9 6 13 54 18 13 22 22 22 19 14 8 7 12 4 11 13 58 46 51 69 83 69 52 51 44 27 41 65 67 74
60 64 53 48 49 44 38 33 48 49 43 38 40 37 34 32 24 43 34 41 39 23 13 10 17 10 36 14 16 15 16 5 17 5 6 16 6 17 15 27 51 75 80 85 73 81 80 68 49 48 49 73 79 82
56 54 55 50 49 45 37 35 43 47 41 39 40 28 13 21 41 34 19 17 21 23 21 6 22 10 35 15 8 14 15 7 6 10 17 7 18 53 55 44 48 67 79 86 74 71 85 82 63 54 60 76 92 93
58 54 59 57 51 45 40 39 50 45 33 34 19 10 24 29 32 18 14 15 14 7 21 16 14 23 26 9 8 11 7 9 10 8 12 7 14 29 75 98 94 76 77 87 97 104 99 89 89 73 66 76 93 92
54 58 57 61 56 49 43 46 50 45 31 31 15 28 27 20 13 13 10 12 11 13 19 15 25 33 22 17 8 12 6 5 10 17 7 10 16 27 46 82 98 97 95 83 90 95 96 92 82 88 79 77 92 95
52 59 63 65 57 53 46 46 56 47 36 23 14 11 16 9 9 13 18 8 10 11 21 29 21 17 14 12 7 6 9 7 29 4 10 16 10 40 60 64 63 74 85 95 89 88 91 91 90 79 80 79 87 98
42 45 55 58 58 59 52 47 45 45 31 16 11 10 12 11 9 10 4 7 9 31 51 67 15 8 12 6 7 10 3 9 9 8 20 6 31 42 44 65 62 63 73 81 97 90 92 92 89 86 80 76 83 97
33 45 63 65 71 65 58 55 48 50 24 13 11 10 10 16 17 11 37 9 18 68 73 34 18 14 3 10 5 10 6 13 19 16 8 24 58 62 77 62 49 57 58 71 75 92 91 87 87 83 80 79 79 90
36 36 63 71 71 68 60 55 50 51 22 10 15 7 10 4 20 2 26 12 49 67 63 26 8 10 8 12 11 17 19 18 11 8 25 30 48 63 57 41 50 58 60 60 66 77 97 81 84 81 76 77 79 87
36 56 60 57 74 70 66 63 53 28 18 15 9 17 38 23 15 20 32 25 24 52 20 6 11 16 10 8 9 12 14 9 11 21 49 35 32 31 27 30 40 52 65 63 64 69 80 97 78 79 78 80 83 84
39 54 52 70 47 87 66 56 32 18 16 17 5 45 35 32 18 15 30 42 24 10 14 7 16 8 13 18 8 9 18 23 19 19 15 17 33 23 19 26 32 42 55 62 63 63 70 87 90 81 84 83 86 87
21 21 45 55 90 41 28 27 22 8 9 8 37 28 17 10 27 31 19 25 40 30 34 11 9 9 9 8 9 18 38 31 22 20 24 35 38 38 25 25 27 38 47 58 67 72 74 81 89 85 90 88 93 92
27 21 24 52 85 20 13 12 25 10 7 14 38 35 21 23 36 47 42 40 34 15 10 7 7 7 19 27 29 41 41 44 58 62 64 57 47 43 34 30 32 39 46 53 62 66 69 73 80 86 85 85 94 98
28 25 23 38 39 18 16 19 15 17 18 19 36 29 18 20 38 33 28 32 23 10 10 25 51 74 43 45 46 39 46 54 54 54 44 36 48 41 38 37 37 44 54 63 70 72 74 79 85 94 89 87 91 96
33 40 32 43 9 12 10 11 8 21 18 15 33 30 4 3 4 15 29 27 11 32 42 49 68 77 69 40 48 57 47 43 41 37 38 43 38 45 49 46 46 52 58 67 73 78 77 79 87 99 96 89 94 98
49 39 23 20 13 25 13 35 15 18 8 7 11 2 5 7 22 29 6 20 25 43 57 59 69 66 58 41 37 38 33 36 36 36 36 32 30 32 43 51 50 53 60 65 69 72 76 79 83 99 103 97 97 101
15 32 22 27 22 10 13 5 14 7 5 6 5 7 6 7 16 10 13 16 35 42 51 57 61 54 47 45 44 42 38 33 30 30 28 28 31 38 48 49 51 50 53 60 66 67 68 76 85 98 101 97 97 106
7 5 4 9 7 9 6 5 4 6 12 11 14 2 6 6 7 10 14 9 25 38 42 51 52 48 43 48 49 49 45 41 41 39 34 34 33 42 48 47 49 51 52 56 66 68 75 80 87 96 96 95 101 108
13 1 2 7 4 11 11 13 13 14 9 9 11 1 6 6 7 14 3 17 11 30 41 48 52 47 40 36 39 44 45 45 43 42 39 35 40 44 49 54 56 58 57 56 64 76 76 82 90 94 91 91 101 106
12 10 1 2 4 11 5 5 6 4 10 13 5 5 2 5 12 1 12 11 15 22 27 33 35 36 39 36 34 34 36 37 36 32 31 34 37 38 45 52 60 58 55 61 61 65 75 84 86 88 87 90 98 101
4 6 10 3 5 8 11 3 7 14 8 6 3 9 13 11 4 3 5 13 16 20 22 26 31 34 35 33 32 32 33 32 30 31 35 32 32 37 41 43 44 40 49 54 55 59 72 79 80 83 86 92 100 98
4 4 7 7 3 4 5 8 8 6 10 12 5 7 7 7 4 10 10 19 16 16 19 24 28 31 32 32 31 31 31 34 36 38 40 34 37 38 41 40 41 41 46 53 52 56 69 75 77 81 86 89 89 87
2 3 5 3 4 6 5 10 11 13 10 10 7 4 2 5 7 7 8 13 14 16 17 17 21 23 25 27 27 29 32 37 37 28 31 29 26 27 34 37 42 43 49 58 61 70 74 79 87 88 86 81 78 79
1 5 6 3 3 3 6 22 19 16 5 1 3 4 4 5 8 8 7 9 11 10 13 16 19 20 22 23 25 27 29 33 34 25 25 24 25 22 30 37 44 49 57 66 68 78 83 86 89 87 78 69 72 76
3 3 3 5 1 16 8 5 8 6 6 4 4 4 2 5 6 7 7 9 12 11 14 15 17 18 20 22 25 27 25 31 28 25 19 19 20 25 34 41 48 53 57 63 65 78 83 85 82 75 71 71 75 78
6 6 5 6 4 1 10 6 6 4 4 0 2 3 3 4 8 8 8 13 15 15 15 15 17 17 17 19 20 22 22 23 21 22 25 27 27 33 37 42 45 51 60 66 72 78 80 78 74 72 72 73 75 74
Wind_Direction_500mb
255 255 252 248 244 248 246 243 250 248 269 267 201 224 230 246 249 233 239 218 202 181 186 185 180 155 157 162 147 155 121 208 78 164 160 199 158 211 141 178 177 164 170 178 110 151 259 180 138 179 202 337 193 174
261 255 253 246 242 238 240 249 247 243 245 253 237 226 216 230 227 227 238 220 207 207 187 193 196 206 206 201 157 170 167 154 167 142 200 127 169 106 147 216 175 212 187 182 186 202 221 181 194 208 180 153 174 172
262 257 253 245 240 236 240 245 239 242 241 235 237 238 240 238 256 231 205 192 202 200 186 193 199 200 205 205 207 149 188 181 192 173 157 174 198 137 170 228 142 236 188 209 130 227 227 219 215 207 208 227 191 191
255 255 250 245 227 230 238 239 236 234 236 231 227 235 245 225 261 254 249 180 192 187 163 208 201 201 200 198 200 202 195 187 192 178 147 147 172 195 208 168 200 182 156 178 268 272 292 237 226 222 224 215 192 192
258 241 243 233 228 226 238 227 237 238 232 228 222 233 238 238 223 257 270 227 196 193 163 148 182 197 196 198 199 202 202 180 170 169 188 210 159 131 352 63 226 190 172 185 217 190 194 232 223 218 216 211 200 189
229 232 232 230 219 219 227 241 239 237 230 222 216 229 225 242 244 266 294 242 210 198 169 144 168 186 185 190 193 191 186 174 168 172 193 226 194 190 178 220 225 212 211 212 215 215 222 233 203 224 218 208 204 194
217 216 223 212 210 220 233 251 232 225 223 222 214 216 224 228 229 196 226 241 173 203 175 118 124 147 168 164 162 163 177 174 166 179 207 186 188 195 177 218 222 209 220 217 222 223 221 233 236 226 223 203 201 192
210 214 214 215 219 223 236 241 230 211 217 216 215 216 213 223 237 256 255 251 209 187 173 131 122 138 165 142 131 150 153 155 191 190 168 158 162 194 251 211 223 224 219 223 221 221 226 231 226 214 205 191 194 190
220 214 215 217 221 223 235 243 216 207 211 215 215 211 207 208 216 251 285 280 258 237 161 155 152 164 158 127 130 130 147 147 178 175 213 162 202 223 216 199 208 212 212 223 221 222 224 231 227 214 204 193 195 191
228 223 216 214 217 221 233 216 208 195 195 204 197 202 188 176 222 238 260 216 207 207 189 156 139 134 153 138 129 133 157 154 166 214 156 211 246 240 233 224 222 217 224 219 213 215 219 221 218 209 206 202 200 195
223 222 216 210 214 218 225 222 204 183 183 185 208 182 147 154 170 197 251 189 192 202 170 145 144 137 163 136 134 166 154 158 173 206 167 251 267 237 228 233 235 231 225 221 223 225 223 222 215 211 208 205 201 198
220 220 219 213 211 213 216 202 181 181 185 187 191 172 170 182 174 212 222 177 187 197 170 142 153 135 136 139 117 159 139 140 188 138 149 257 249 203 206 226 236 229 226 221 222 223 225 225 222 216 210 205 203 200
231 219 215 217 206 201 203 194 189 190 187 182 194 215 160 190 220 221 210 194 178 158 154 147 142 119 116 115 107 138 151 174 123 142 220 239 224 204 216 226 236 231 229 224 220 223 226 225 224 219 213 211 205 201
201 200 209 205 198 194 196 195 191 190 178 181 198 227 200 170 229 257 276 203 163 137 142 148 123 126 127 114 129 137 95 137 172 218 232 230 205 202 215 232 225 226 224 224 220 218 225 222 221 219 215 217 210 202
223 225 208 202 193 192 195 195 193 195 181 196 182 242 197 224 238 289 326 246 160 148 146 145 97 102 98 106 99 107 127 205 210 225 236 201 195 213 227 234 232 226 226 223 219 216 221 223 219 216 214 215 213 206
233 216 203 197 195 195 195 196 195 204 217 228 209 194 265 265 238 286 297 284 155 160 152 149 137 153 169 130 145 195 163 217 233 215 217 223 215 220 230 243 246 231 225 226 223 217 217 219 217 214 211 211 209 207
225 220 216 212 205 199 195 197 194 199 222 203 234 221 234 240 240 222 248 297 333 167 168 145 157 184 108 136 204 183 197 208 209 225 213 224 212 211 229 238 237 232 226 224 220 217 216 219 217 211 204 207 207 205
220 221 222 209 203 190 196 183 189 207 198 229 169 228 223 221 220 198 232 254 296 286 170 212 132 163 183 177 231 214 219 207 217 225 246 227 215 222 246 249 242 230 220 220 217 211 207 209 207 213 207 207 202 201
230 204 208 192 188 193 163 173 181 188 221 183 228 240 218 233 238 249 251 254 249 274 302 289 187 185 208 203 189 183 180 181 188 206 249 263 227 224 240 241 238 224 209 211 211 208 205 208 205 206 205 201 200 197
230 232 209 221 189 153 133 155 179 175 170 214 245 251 236 237 247 242 247 250 239 207 266 239 243 228 196 204 177 182 190 200 212 217 227 236 235 235 243 244 239 221 209 207 210 209 203 197 201 206 208 203 199 197
200 196 187 189 160 168 162 160 168 177 189 197 242 242 225 240 227 221 223 229 197 192 235 246 274 283 277 212 202 198 209 210 212 223 234 241 234 232 233 229 219 211 206 203 204 204 205 201 198 200 203 201 201 200
200 184 176 191 203 157 203 202 200 192 198 199 222 213 154 239 209 207 235 201 213 226 235 252 261 267 269 209 211 214 217 218 227 243 252 250 236 224 221 224 218 212 209 209 208 207 203 203 203 199 199 200 200 199
180 172 170 169 181 187 212 193 179 192 160 226 182 180 211 199 237 256 212 243 237 229 236 245 247 246 236 224 217 216 223 232 238 245 250 249 245 239 230 223 219 217 211 209 211 208 205 204 204 201 196 199 197 195
200 178 182 177 195 175 167 170 170 138 171 177 156 217 257 209 217 177 239 229 227 228 224 221 225 233 230 223 223 235 238 246 253 253 244 238 235 230 224 224 219 221 222 215 207 207 205 201 201 201 197 195 195 194
244 236 196 159 131 110 121 100 97 120 223 206 191 288 311 190 235 217 237 236 233 234 217 209 210 215 223 226 220 220 226 237 245 248 246 240 234 223 216 215 216 219 220 212 207 204 200 201 200 199 197 194 193 191
217 33 248 182 150 144 179 150 195 184 170 179 207 353 239 173 169 268 308 323 237 202 200 204 207 206 212 226 232 228 226 231 236 240 242 237 228 223 220 211 208 214 217 214 212 204 199 196 195 195 195 194 193 191
173 197 185 359 27 125 80 9 84 116 172 193 179 188 176 189 227 174 321 256 241 206 204 204 204 206 205 213 224 225 223 223 222 224 228 227 222 223 223 225 221 221 212 210 208 210 200 193 192 192 193 194 193 193
70 165 169 177 49 354 119 58 148 183 173 162 151 184 191 210 244 9 276 284 271 242 229 217 210 207 209 212 210 210 213 214 208 210 215 213 215 223 228 227 226 226 222 213 205 203 200 195 193 194 192 189 186 189
40 47 127 92 34 13 136 171 197 199 151 160 178 211 216 216 239 300 284 267 277 257 240 220 211 210 210 206 199 202 206 201 199 200 206 206 210 214 217 218 213 207 207 204 197 196 195 194 192 186 183 185 186 186
63 91 90 98 184 221 230 167 154 156 156 176 197 201 243 280 302 325 291 246 248 257 241 223 209 208 207 201 196 199 199 195 199 206 225 219 217 220 219 211 202 197 195 194 191 186 190 188 183 180 182 186 190 192
238 127 104 67 65 12 134 133 117 109 103 190 160 231 233 295 283 274 289 252 238 238 227 221 213 206 202 200 196 191 194 198 204 197 206 217 206 217 211 203 198 196 195 194 193 190 184 184 184 184 186 188 187 188
69 70 139 124 166 165 161 205 158 165 176 193 212 238 97 33 297 282 272 231 212 217 215 206 199 195 195 192 192 193 192 203 203 198 200 198 205 202 194 197 193 190 189 188 187 183 181 183 183 186 188 187 186 187
112 102 106 122 105 267 217 205 195 146 167 80 298 241 181 218 257 256 240 210 206 196 192 188 186 189 192 193 194 198 208 205 185 183 188 189 191 188 192 188 181 180 182 181 176 176 179 183 184 184 184 183 183 183
Wind_Speed_850mb
48 53 56 58 55 51 45 45 39 41 41 35 23 38 52 55 44 33 44 88 60 14 30 59 54 52 39 39 13 35 18 6 6 9 9 9 7 15 7 10 14 17 18 8 6 3 22 28 19 17 6 2 16 55
48 50 52 56 53 50 47 48 45 46 45 45 31 35 40 22 42 38 28 77 70 24 19 61 70 79 79 87 57 67 19 33 28 8 3 6 4 1 10 8 8 10 15 12 21 17 11 60 14 43 4 4 35 57
50 50 57 50 56 56 46 40 44 45 47 40 36 39 42 29 30 40 21 65 84 48 14 56 60 69 65 51 62 31 19 37 28 22 18 6 9 9 10 12 7 9 16 6 7 16 31 40 49 29 22 3 27 53
59 53 51 51 54 54 51 45 44 46 44 44 37 41 39 15 33 41 37 40 68 35 10 18 49 57 64 56 70 61 42 60 41 34 8 6 6 20 9 6 15 14 27 16 9 16 10 38 56 61 29 27 25 45
58 56 52 49 49 45 39 43 36 38 43 48 36 32 36 29 20 38 54 40 41 51 11 20 38 54 68 64 63 61 45 56 43 17 4 7 9 8 1 4 8 24 15 17 16 26 30 16 44 62 59 44 37 52
57 54 51 47 50 43 38 38 44 43 40 44 41 33 32 31 24 11 14 49 55 54 13 7 12 45 58 61 65 54 53 48 27 16 10 10 10 16 8 8 19 65 67 65 24 35 57 42 20 26 57 61 48 57
58 56 49 47 45 38 34 35 40 49 42 46 43 38 32 36 33 24 14 9 33 70 17 7 6 19 59 60 42 42 51 28 17 14 10 11 14 18 4 12 12 58 80 82 67 46 36 55 37 38 39 61 54 63
59 58 51 52 49 42 39 36 42 45 35 37 40 37 34 31 35 32 38 48 12 26 19 9 6 13 54 18 13 22 22 22 19 14 8 7 12 4 11 13 58 46 51 69 83 69 52 51 44 27 41 65 67 74
60 64 53 48 49 44 38 33 48 49 43 38 40 37 34 32 24 43 34 41 39 23 13 10 17 10 36 14 16 15 16 5 17 5 6 16 6 17 15 27 51 75 80 85 73 81 80 68 49 48 49 73 79 82
56 54 55 50 49 45 37 35 43 47 41 39 40 28 13 21 41 34 19 17 21 23 21 6 22 10 35 15 8 14 15 7 6 10 17 7 18 53 55 44 48 67 79 86 74 71 85 82 63 54 60 76 92 93
58 54 59 57 51 45 40 39 50 45 33 34 19 10 24 29 32 18 14 15 14 7 21 16 14 23 26 9 8 11 7 9 10 8 12 7 14 29 75 98 94 76 77 87 97 104 99 89 89 73 66 76 93 92
54 58 57 61 56 49 43 46 50 45 31 31 15 28 27 20 13 13 10 12 11 13 19 15 25 33 22 17 8 12 6 5 10 17 7 10 16 27 46 82 98 97 95 83 90 95 96 92 82 88 79 77 92 95
52 59 63 65 57 53 46 46 56 47 36 23 14 11 16 9 9 13 18 8 10 11 21 29 21 17 14 12 7 6 9 7 29 4 10 16 10 40 60 64 63 74 85 95 89 88 91 91 90 79 80 79 87 98
42 45 55 58 58 59 52 47 45 45 31 16 11 10 12 11 9 10 4 7 9 31 51 67 15 8 12 6 7 10 3 9 9 8 20 6 31 42 44 65 62 63 73 81 97 90 92 92 89 86 80 76 83 97
33 45 63 65 71 65 58 55 48 50 24 13 11 10 10 16 17 11 37 9 18 68 73 34 18 14 3 10 5 10 6 13 19 16 8 24 58 62 77 62 49 57 58 71 75 92 91 87 87 83 80 79 79 90
36 36 63 71 71 68 60 55 50 51 22 10 15 7 10 4 20 2 26 12 49 67 63 26 8 10 8 12 11 17 19 18 11 8 25 30 48 63 57 41 50 58 60 60 66 77 97 81 84 81 76 77 79 87
36 56 60 57 74 70 66 63 53 28 18 15 9 17 38 23 15 20 32 25 24 52 20 6 11 16 10 8 9 12 14 9 11 21 49 35 32 31 27 30 40 52 65 63 64 69 80 97 78 79 78 80 83 84
39 54 52 70 47 87 66 56 32 18 16 17 5 45 35 32 18 15 30 42 24 10 14 7 16 8 13 18 8 9 18 23 19 19 15 17 33 23 19 26 32 42 55 62 63 63 70 87 90 81 84 83 86 87
21 21 45 55 90 41 28 27 22 8 9 8 37 28 17 10 27 31 19 25 40 30 34 11 9 9 9 8 9 18 38 31 22 20 24 35 38 38 25 25 27 38 47 58 67 72 74 81 89 85 90 88 93 92
27 21 24 52 85 20 13 12 25 10 7 14 38 35 21 23 36 47 42 40 34 15 10 7 7 7 19 27 29 41 41 44 58 62 64 57 47 43 34 30 32 39 46 53 62 66 69 73 80 86 85 85 94 98
28 25 23 38 39 18 16 19 15 17 18 19 36 29 18 20 38 33 28 32 23 10 10 25 51 74 43 45 46 39 46 54 54 54 44 36 48 41 38 37 37 44 54 63 70 72 74 79 85 94 89 87 91 96
33 40 32 43 9 12 10 11 8 21 18 15 33 30 4 3 4 15 29 27 11 32 42 49 68 77 69 40 48 57 47 43 41 37 38 43 38 45 49 46 46 52 58 67 73 78 77 79 87 99 96 89 94 98
49 39 23 20 13 25 13 35 15 18 8 7 11 2 5 7 22 29 6 20 25 43 57 59 69 66 58 41 37 38 33 36 36 36 36 32 30 32 43 51 50 53 60 65 69 72 76 79 83 99 103 97 97 101
15 32 22 27 22 10 13 5 14 7 5 6 5 7 6 7 16 10 13 16 35 42 51 57 61 54 47 45 44 42 38 33 30 30 28 28 31 38 48 49 51 50 53 60 66 67 68 76 85 98 101 97 97 106
7 5 4 9 7 9 6 5 4 6 12 11 14 2 6 6 7 10 14 9 25 38 42 51 52 48 43 48 49 49 45 41 41 39 34 34 33 42 48 47 49 51 52 56 66 68 75 80 87 96 96 95 101 108
13 1 2 7 4 11 11 13 13 14 9 9 11 1 6 6 7 14 3 17 11 30 41 48 52 47 40 36 39 44 45 45 43 42 39 35 40 44 49 54 56 58 57 56 64 76 76 82 90 94 91 91 101 106
12 10 1 2 4 11 5 5 6 4 10 13 5 5 2 5 12 1 12 11 15 22 27 33 35 36 39 36 34 34 36 37 36 32 31 34 37 38 45 52 60 58 55 61 61 65 75 84 86 88 87 90 98 101
4 6 10 3 5 8 11 3 7 14 8 6 3 9 13 11 4 3 5 13 16 20 22 26 31 34 35 33 32 32 33 32 30 31 35 32 32 37 41 43 44 40 49 54 55 59 72 79 80 83 86 92 100 98
4 4 7 7 3 4 5 8 8 6 10 12 5 7 7 7 4 10 10 19 16 16 19 24 28 31 32 32 31 31 31 34 36 38 40 34 37 38 41 40 41 41 46 53 52 56 69 75 77 81 86 89 89 87
2 3 5 3 4 6 5 10 11 13 10 10 7 4 2 5 7 7 8 13 14 16 17 17 21 23 25 27 27 29 32 37 37 28 31 29 26 27 34 37 42 43 49 58 61 70 74 79 87 88 86 81 78 79
1 5 6 3 3 3 6 22 19 16 5 1 3 4 4 5 8 8 7 9 11 10 13 16 19 20 22 23 25 27 29 33 34 25 25 24 25 22 30 37 44 49 57 66 68 78 83 86 89 87 78 69 72 76
3 3 3 5 1 16 8 5 8 6 6 4 4 4 2 5 6 7 7 9 12 11 14 15 17 18 20 22 25 27 25 31 28 25 19 19 20 25 34 41 48 53 57 63 65 78 83 85 82 75 71 71 75 78
6 6 5 6 4 1 10 6 6 4 4 0 2 3 3 4 8 8 8 13 15 15 15 15 17 17 17 19 20 22 22 23 21 22 25 27 27 33 37 42 45 51 60 66 72 78 80 78 74 72 72 73 75 74
Wind_Direction_850mb
255 255 252 248 244 248 246 243 250 248 269 267 201 224 230 246 249 233 239 218 202 181 186 185 180 155 157 162 147 155 121 208 78 164 160 199 158 211 141 178 177 164 170 178 110 151 259 180 138 179 202 337 193 174
261 255 253 246 242 238 240 249 247 243 245 253 237 226 216 230 227 227 238 220 207 207 187 193 196 206 206 201 157 170 167 154 167 142 200 127 169 106 147 216 175 212 187 182 186 202 221 181 194 208 180 153 174 172
262 257 253 245 240 236 240 245 239 242 241 235 237 238 240 238 256 231 205 192 202 200 186 193 199 200 205 205 207 149 188 181 192 173 157 174 198 137 170 228 142 236 188 209 130 227 227 219 215 207 208 227 191 191
255 255 250 245 227 230 238 239 236 234 236 231 227 235 245 225 261 254 249 180 192 187 163 208 201 201 200 198 200 202 195 187 192 178 147 147 172 195 208 168 200 182 156 178 268 272 292 237 226 222 224 215 192 192
258 241 243 233 228 226 238 227 237 238 232 228 222 233 238 238 223 257 270 227 196 193 163 148 182 197 196 198 199 202 202 180 170 169 188 210 159 131 352 63 226 190 172 185 217 190 194 232 223 218 216 211 200 189
229 232 232 230 219 219 227 241 239 237 230 222 216 229 225 242 244 266 294 242 210 198 169 144 168 186 185 190 193 191 186 174 168 172 193 226 194 190 178 220 225 212 211 212 215 215 222 233 203 224 218 208 204 194
217 216 223 212 210 220 233 251 232 225 223 222 214 216 224 228 229 196 226 241 173 203 175 118 124 147 168 164 162 163 177 174 166 179 207 186 188 195 177 218 222 209 220 217 222 223 221 233 236 226 223 203 201 192
210 214 214 215 219 223 236 241 230 211 217 216 215 216 213 223 237 256 255 251 209 187 173 131 122 138 165 142 131 150 153 155 191 190 168 158 162 194 251 211 223 224 219 223 221 221 226 231 226 214 205 191 194 190
220 214 215 217 221 223 235 243 216 207 211 215 215 211 207 208 216 251 285 280 258 237 161 155 152 164 158 127 130 130 147 147 178 175 213 162 202 223 216 199 208 212 212 223 221 222 224 231 227 214 204 193 195 191
228 223 216 214 217 221 233 216 208 195 195 204 197 202 188 176 222 238 260 216 207 207 189 156 139 134 153 138 129 133 157 154 166 214 156 211 246 240 233 224 222 217 224 219 213 215 219 221 218 209 206 202 200 195
223 222 216 210 214 218 225 222 204 183 183 185 208 182 147 154 170 197 251 189 192 202 170 145 144 137 163 136 134 166 154 158 173 206 167 251 267 237 228 233 235 231 225 221 223 225 223 222 215 211 208 205 201 198
220 220 219 213 211 213 216 202 181 181 185 187 191 172 170 182 174 212 222 177 187 197 170 142 153 135 136 139 117 159 139 140 188 138 149 257 249 203 206 226 236 229 226 221 222 223 225 225 222 216 210 205 203 200
231 219 215 217 206 201 203 194 189 190 187 182 194 215 160 190 220 221 210 194 178 158 154 147 142 119 116 115 107 138 151 174 123 142 220 239 224 204 216 226 236 231 229 224 220 223 226 225 224 219 213 211 205 201
201 200 209 205 198 194 196 195 191 190 178 181 198 227 200 170 229 257 276 203 163 137 142 148 123 126 127 114 129 137 95 137 172 218 232 230 205 202 215 232 225 226 224 224 220 218 225 222 221 219 215 217 210 202
223 225 208 202 193 192 195 195 193 195 181 196 182 242 197 224 238 289 326 246 160 148 146 145 97 102 98 106 99 107 127 205 210 225 236 201 195 213 227 234 232 226 226 223 219 216 221 223 219 216 214 215 213 206
233 216 203 197 195 195 195 196 195 204 217 228 209 194 265 265 238 286 297 284 155 160 152 149 137 153 169 130 145 195 163 217 233 215 217 223 215 220 230 243 246 231 225 226 223 217 217 219 217 214 211 211 209 207
225 220 216 212 205 199 195 197 194 199 222 203 234 221 234 240 240 222 248 297 333 167 168 145 157 184 108 136 204 183 197 208 209 225 213 224 212 211 229 238 237 232 226 224 220 217 216 219 217 211 204 207 207 205
220 221 222 209 203 190 196 183 189 207 198 229 169 228 223 221 220 198 232 254 296 286 170 212 132 163 183 177 231 214 219 207 217 225 246 227 215 222 246 249 242 230 220 220 217 211 207 209 207 213 207 207 202 201
230 204 208 192 188 193 163 173 181 188 221 183 228 240 218 233 238 249 251 254 249 274 302 289 187 185 208 203 189 183 180 181 188 206 249 263 227 224 240 241 238 224 209 211 211 208 205 208 205 206 205 201 200 197
230 232 209 221 189 153 133 155 179 175 170 214 245 251 236 237 247 242 247 250 239 207 266 239 243 228 196 204 177 182 190 200 212 217 227 236 235 235 243 244 239 221 209 207 210 209 203 197 201 206 208 203 199 197
200 196 187 189 160 168 162 160 168 177 189 197 242 242 225 240 227 221 223 229 197 192 235 246 274 283 277 212 202 198 209 210 212 223 234 241 234 232 233 229 219 211 206 203 204 204 205 201 198 200 203 201 201 200
200 184 176 191 203 157 203 202 200 192 198 199 222 213 154 239 209 207 235 201 213 226 235 252 261 267 269 209 211 214 217 218 227 243 252 250 236 224 221 224 218 212 209 209 208 207 203 203 203 199 199 200 200 199
180 172 170 169 181 187 212 193 179 192 160 226 182 180 211 199 237 256 212 243 237 229 236 245 247 246 236 224 217 216 223 232 238 245 250 249 245 239 230 223 219 217 211 209 211 208 205 204 204 201 196 199 197 195
200 178 182 177 195 175 167 170 170 138 171 177 156 217 257 209 217 177 239 229 227 228 224 221 225 233 230 223 223 235 238 246 253 253 244 238 235 230 224 224 219 221 222 215 207 207 205 201 201 201 197 195 195 194
244 236 196 159 131 110 121 100 97 120 223 206 191 288 311 190 235 217 237 236 233 234 217 209 210 215 223 226 220 220 226 237 245 248 246 240 234 223 216 215 216 219 220 212 207 204 200 201 200 199 197 194 193 191
217 33 248 182 150 144 179 150 195 184 170 179 207 353 239 173 169 268 308 323 237 202 200 204 207 206 212 226 232 228 226 231 236 240 242 237 228 223 220 211 208 214 217 214 212 204 199 196 195 195 195 194 193 191
173 197 185 359 27 125 80 9 84 116 172 193 179 188 176 189 227 174 321 256 241 206 204 204 204 206 205 213 224 225 223 223 222 224 228 227 222 223 223 225 221 221 212 210 208 210 200 193 192 192 193 194 193 193
70 165 169 177 49 354 119 58 148 183 173 162 151 184 191 210 244 9 276 284 271 242 229 217 210 207 209 212 210 210 213 214 208 210 215 213 215 223 228 227 226 226 222 213 205 203 200 195 193 194 192 189 186 189
40 47 127 92 34 13 136 171 197 199 151 160 178 211 216 216 239 300 284 267 277 257 240 220 211 210 210 206 199 202 206 201 199 200 206 206 210 214 217 218 213 207 207 204 197 196 195 194 192 186 183 185 186 186
63 91 90 98 184 221 230 167 154 156 156 176 197 201 243 280 302 325 291 246 248 257 241 223 209 208 207 201 196 199 199 195 199 206 225 219 217 220 219 211 202 197 195 194 191 186 190 188 183 180 182 186 190 192
238 127 104 67 65 12 134 133 117 109 103 190 160 231 233 295 283 274 289 252 238 238 227 221 213 206 202 200 196 191 194 198 204 197 206 217 206 217 211 203 198 196 195 194 193 190 184 184 184 184 186 188 187 188
69 70 139 124 166 165 161 205 158 165 176 193 212 238 97 33 297 282 272 231 212 217 215 206 199 195 195 192 192 193 192 203 203 198 200 198 205 202 194 197 193 190 189 188 187 183 181 183 183 186 188 187 186 187
112 102 106 122 105 267 217 205 195 146 167 80 298 241 181 218 257 256 240 210 206 196 192 188 186 189 192 193 194 198 208 205 185 183 188 189 191 188 192 188 181 180 182 181 176 176 179 183 184 184 184 183 183 183